Home   Weather   Oral   Past weeks

Flag for Kazakhstan Past Weather in Oral, Kazakhstan — Yesterday and Last 2 Weeks

Now
61 °F

Clear.


Feels Like: 61 °F
Forecast: 53 / 69 °F
Wind: 13 mph from Southeast

Location: Uralsk

Current Time: Sep 1, 2016 at 2:53:42 AM

Latest Report: Sep 1, 2016 at 2:00 AM


Visibility: 10 mi

Pressure: 29.83 "Hg

Humidity: 25%

Dew Point: 25 °F

Location of OralLocation

Past Weather in Oral — Graph

°F

Oral Temperature Yesterday

Maximum temperature yesterday: 84 °F (at 3:00 PM)
Minimum temperature yesterday: 46 °F (at 7:00 AM)
Average temperature yesterday: 68 °F

High & Low Weather Summary for the Past Weeks

 TemperatureHumidityPressure
High100 °F (Aug 17, 2:00 PM)94% (Aug 28, 6:30 AM)30.30 "Hg (Aug 28, 6:30 AM)
Low41 °F (Aug 30, 6:00 AM)11% (Aug 17, 2:00 PM)29.83 "Hg (Sep 1, 1:00 AM)
Average78 °F37%30.09 "Hg
* Reported Aug 17 1:00 AM — Sep 1 1:00 AM, Oral, Weather by CustomWeather, © 2016

Note: Actual official high and low records may vary slightly from our data, if they occured in-between our weather recording intervals... More about our weather records

Advertising

Oral Weather History for the Previous 24 Hours

Scroll right to see more
 ConditionsComfort  
Time TempWeatherWind HumidityBarometerVisibility
1:00 AM
Thu, Sep 1
63 °FClear.13 mph22%29.83 "Hg10 mi
12:00 AM64 °FClear.13 mph21%29.86 "Hg10 mi
11:00 PM
Wed, Aug 31
66 °FClear.13 mph19%29.89 "Hg10 mi
10:30 PM66 °FClear.10 mph21%29.89 "Hg10 mi
10:00 PM66 °FClear.10 mph22%29.89 "Hg10 mi
9:30 PM66 °FClear.10 mph24%29.89 "Hg10 mi
9:00 PM66 °FClear.8 mph24%29.89 "Hg10 mi
8:30 PM72 °FClear.8 mph20%29.89 "Hg10 mi
8:00 PM75 °FSunny.8 mph18%29.89 "Hg10 mi
7:30 PM79 °FSunny.10 mph16%29.89 "Hg10 mi
7:00 PM81 °FSunny.13 mph15%29.92 "Hg10 mi
6:30 PM82 °FSunny.15 mph14%29.92 "Hg10 mi
6:00 PM84 °FSunny.13 mph13%29.92 "Hg10 mi
5:30 PM84 °FPassing clouds.15 mph13%29.92 "HgN/A
5:00 PM84 °FSunny.17 mph13%29.95 "Hg10 mi
4:30 PM84 °FPassing clouds.15 mph13%29.95 "HgN/A
4:00 PM84 °FPassing clouds.17 mph13%29.95 "HgN/A
3:30 PM84 °FSunny.15 mph13%29.98 "Hg10 mi
3:00 PM84 °FPassing clouds.15 mph13%29.98 "HgN/A
2:30 PM82 °FPassing clouds.15 mph14%30.01 "HgN/A
2:00 PM82 °FSunny.17 mph14%30.01 "Hg10 mi
1:30 PM81 °FSunny.17 mph15%30.01 "Hg10 mi
1:00 PM81 °FPassing clouds.15 mph15%30.04 "HgN/A
12:30 PM79 °FPassing clouds.13 mph17%30.04 "HgN/A
12:00 PM79 °FPassing clouds.13 mph17%30.04 "HgN/A
11:30 AM75 °FPassing clouds.13 mph19%30.04 "HgN/A
11:00 AM73 °FPassing clouds.10 mph20%30.07 "HgN/A
10:30 AM72 °FSunny.10 mph22%30.07 "Hg10 mi
10:00 AM70 °FSunny.10 mph23%30.07 "Hg10 mi
9:30 AM64 °FSunny.10 mph28%30.07 "Hg10 mi
9:00 AM63 °FSunny.8 mph27%30.09 "Hg10 mi
8:30 AM59 °FSunny.10 mph34%30.09 "Hg10 mi
8:00 AM57 °FSunny.8 mph36%30.09 "Hg10 mi
7:30 AM50 °FSunny.6 mph50%30.09 "Hg10 mi
7:00 AM46 °FSunny.6 mph53%30.09 "Hg10 mi
6:30 AM48 °FClear.6 mph50%30.09 "Hg10 mi
6:00 AM48 °FClear.6 mph50%30.09 "Hg10 mi
5:30 AM48 °FClear.6 mph50%30.09 "Hg10 mi
5:00 AM48 °FClear.6 mph50%30.09 "Hg10 mi
4:00 AM52 °FClear.8 mph44%30.12 "Hg10 mi
3:00 AM48 °FClear.8 mph50%30.12 "Hg10 mi
2:00 AM50 °FClear.6 mph50%30.12 "Hg10 mi
Weather by CustomWeather, © 2016

See weather overviewHow to use our weather pages